Regional Weather Roundup
Issued by NWS

Home | Current Version | Previous Version | Graphics & Text | Print | Product List | Glossary Off
Versions: 1 2 3 4 5 6 7 8 9 10 11 12 13 14 15 16 17 18 19 20 21 22 23 24 25 26 27 28 29 30 31 32 33 34 35 36 37 38 39 40 41 42 43 44 45 46 47 48 49 50

563
ASUS43 KTOP 282159
RWRKS

WEATHER ROUNDUP FOR KANSAS
NATIONAL WEATHER SERVICE GOODLAND KS
500 PM CDT WED SEP 28 2016

NOTE:  "FAIR" INDICATES FEW OR NO CLOUDS BELOW 12,000 FEET WITH NO
SIGNIFICANT WEATHER AND/OR OBSTRUCTIONS TO VISIBILITY.

KSZ001>006-013>018-027>032-041>047-282300-
NORTHWEST KANSAS

CITY           SKY/WX    TMP DP  RH WIND       PRES   REMARKS
GOODLAND       SUNNY     82  40  22 NE10      30.23S
HAYS           SUNNY     75  41  29 NE14G20   30.20S
HILL CITY      SUNNY     77  44  30 NE9       30.22R
RUSSELL        SUNNY     74  37  26 NE12      30.18S
$$

KSZ061>065-074>080-084>089-282300-
SOUTHWEST KANSAS

CITY           SKY/WX    TMP DP  RH WIND       PRES   REMARKS
DODGE CITY     SUNNY     82  44  26 NE14      30.19S
ELKHART          N/A     86  40  19 N3          N/A
GARDEN CITY    SUNNY     83  42  23 E9        30.19S
GREAT BEND     SUNNY     75  37  25 NE16      30.18S
LIBERAL        SUNNY     88  43  20 E10G16    30.18S
$$

KSZ066>073-081>083-090>101-282300-
SOUTHEAST KANSAS

CITY           SKY/WX    TMP DP  RH WIND       PRES   REMARKS
CHANUTE        LGT RAIN  72  48  42 NE14G21   30.12R
COFFEYVILLE    SUNNY     74  47  38 N16G23    30.10R
HUTCHINSON     SUNNY     74  42  31 N13G23    30.16R
MEDICINE LODGE   N/A     79  45  29 NE12      30.14R
NEWTON         SUNNY     70  48  45 N15G21    30.17R
PARSONS        SUNNY     73  48  41 N9        30.12R
WICHITA INTL   MOSUNNY   75  46  35 N20G26    30.13S
WICHITA JABRA  LGT RAIN  73  49  42 N16       30.14S
WINFIELD       SUNNY     75  43  31 N15       30.13R
$$

KSZ007>012-019>026-033>040-048>060-102>105-282300-
NORTHEAST KANSAS

CITY           SKY/WX    TMP DP  RH WIND       PRES   REMARKS
CONCORDIA      SUNNY     71  44  37 NE10      30.20R
EMPORIA        SUNNY     69  47  45 N12       30.16R
LAWRENCE       SUNNY     69  48  47 N15       30.15R
MANHATTAN      SUNNY     70  46  42 NE13      30.18R
OLATHE IND     SUNNY     66  47  50 N12       30.15R
OLATHE EXE     SUNNY     67  46  47 N10       30.15R
SALINA         SUNNY     74  47  38 NE13      30.18R
TOPEKA BILLARD SUNNY     68  47  46 N14       30.16R
TOPEKA FORBES  SUNNY     69  47  45 N9        30.16R
$$




USA.gov is the U.S. government's official web portal to all federal, state and local government web resources and services.